GW6491 Weather Reports


time (UTC)temp
C
wind
direction
speed
KPH
gust
KPH
rain 1hr
cm
rain 24hr
cm
rain mn
cm
humidity
%
barometer
mb
20260502210538 26 0 0.0 0.0 0.00 0.03 0.03 100 1009.6
20260502210036 26 0 0.0 0.0 0.00 0.03 0.03 100 1009.6
20260502205532 26 0 0.0 0.0 0.00 0.03 0.03 100 1009.6
20260502205029 26 0 0.0 0.0 0.00 0.03 0.03 100 1009.6
20260502204526 26 0 1.6 1.6 0.00 0.03 0.03 100 1009.3
20260502204024 26 0 1.6 3.2 0.00 0.03 0.03 100 1009.3
20260502203520 26 0 1.6 3.2 0.00 0.03 0.03 100 1009.3
20260502203017 26 0 1.6 3.2 0.00 0.03 0.03 100 1009.3
20260502202513 26 0 0.0 1.6 0.00 0.03 0.03 100 1009.0
20260502202012 26 0 0.0 1.6 0.00 0.03 0.03 100 1009.0
20260502201508 26 0 1.6 1.6 0.00 0.03 0.03 100 1009.0
20260502201004 26 0 0.0 0.0 0.00 0.03 0.03 100 1009.0
20260502200500 26 0 0.0 0.0 0.00 0.03 0.03 100 1009.0
20260502195958 26 0 0.0 0.0 0.00 0.03 0.03 100 1009.0
20260502195455 26 0 0.0 0.0 0.00 0.03 0.03 100 1009.0
20260502194951 26 0 1.6 1.6 0.00 0.03 0.03 100 1009.0
20260502194448 26 0 1.6 1.6 0.00 0.03 0.03 100 1009.0
20260502193944 26 0 1.6 1.6 0.00 0.03 0.03 100 1009.0
20260502193442 26 0 0.0 1.6 0.00 0.03 0.03 100 1009.0
20260502192937 26 0 0.0 0.0 0.00 0.03 0.03 100 1009.0
20260502192434 26 0 0.0 1.6 0.00 0.03 0.03 100 1009.0
20260502191931 26 0 0.0 0.0 0.00 0.03 0.03 100 1008.6
20260502191429 26 0 0.0 0.0 0.00 0.03 0.03 100 1008.6
20260502190926 26 0 0.0 0.0 0.00 0.03 0.03 100 1008.6
20260502190423 26 0 0.0 0.0 0.00 0.03 0.03 100 1008.6
20260502185920 26 0 0.0 0.0 0.00 0.03 0.03 100 1008.6
20260502185415 26 0 0.0 0.0 0.00 0.03 0.03 100 1008.6
20260502184912 26 0 0.0 0.0 0.00 0.03 0.03 100 1008.6
20260502184408 26 0 0.0 0.0 0.00 0.03 0.03 100 1008.6
20260502183905 26 0 0.0 1.6 0.00 0.03 0.03 100 1008.6
20260502183400 26 0 0.0 0.0 0.00 0.03 0.03 100 1008.6
20260502182856 26 0 0.0 0.0 0.00 0.03 0.03 100 1008.6
20260502182352 26 0 0.0 0.0 0.00 0.03 0.03 100 1008.3
20260502181848 26 0 0.0 3.2 0.00 0.03 0.03 100 1008.3
20260502181347 26 0 1.6 4.8 0.00 0.03 0.03 100 1008.6
20260502180845 26 0 0.0 0.0 0.00 0.03 0.03 100 1008.6
20260502180342 26 0 0.0 1.6 0.00 0.03 0.03 100 1008.6
20260502170300 26 0 1.6 1.6 0.00 0.03 0.03 100 1008.6
20260502164248 26 0 3.2 3.2 0.00 0.03 0.03 100 1009.0
20260502163743 26 0 1.6 3.2 0.00 0.03 0.03 100 1009.0
20260502163240 26 0 0.0 1.6 0.00 0.03 0.03 100 1009.0
20260502162737 26 0 0.0 1.6 0.00 0.03 0.03 100 1009.0
20260502162234 26 0 1.6 3.2 0.00 0.03 0.03 100 1009.0
20260502161731 26 0 1.6 1.6 0.00 0.03 0.03 100 1009.0
20260502161227 26 0 0.0 1.6 0.00 0.03 0.03 100 1009.0
20260502160726 26 0 1.6 3.2 0.00 0.03 0.03 100 1009.0
20260502160225 26 0 3.2 3.2 0.00 0.03 0.03 100 1009.0
20260502152154 26 0 0.0 0.0 0.00 0.00 0.00 100 1009.6
20260502151652 26 0 0.0 0.0 0.00 0.00 0.00 100 1009.6
20260502151149 26 0 1.6 1.6 0.00 0.00 0.00 100 1009.6
20260502150646 26 0 1.6 3.2 0.00 0.00 0.00 100 1009.6
20260502150142 26 0 0.0 3.2 0.00 0.00 0.00 100 1009.6
20260502140106 26 0 0.0 0.0 0.00 0.00 0.00 100 1010.3
20260502130531 26 0 3.2 4.8 0.00 0.64 0.64 100 1011.3
20260502123514 26 0 0.0 1.6 0.00 0.64 0.64 100 1011.3
20260502123011 26 0 0.0 3.2 0.00 0.64 0.64 100 1011.3
20260502122507 26 0 1.6 3.2 0.00 0.64 0.64 100 1011.3
20260502122005 26 0 3.2 6.4 0.00 0.64 0.64 100 1011.3
20260502121502 26 0 1.6 4.8 0.00 0.64 0.64 100 1011.3
20260502121000 26 0 3.2 8.0 0.00 0.64 0.64 100 1011.3
20260502120456 26 0 4.8 11.3 0.00 0.64 0.64 100 1011.3
20260502115450 26 0 4.8 9.7 0.00 0.64 0.64 100 1011.3
20260502114946 26 0 4.8 11.3 0.00 0.64 0.64 100 1011.3
20260502114443 26 0 9.7 17.7 0.00 0.64 0.64 100 1011.3
20260502113940 26 0 3.2 16.1 0.00 0.64 0.64 100 1011.3
20260502113438 26 0 0.0 1.6 1.19 0.61 0.61 100 1011.3
20260502112936 26 0 0.0 0.0 0.00 0.61 0.61 100 1011.3
20260502112433 26 0 0.0 0.0 0.00 0.61 0.61 100 1011.3
20260502111931 26 0 0.0 0.0 0.00 0.61 0.61 100 1011.0
20260502111428 26 0 0.0 0.0 0.00 0.61 0.61 100 1011.0
20260502110925 26 0 0.0 0.0 0.00 0.61 0.61 100 1011.0
20260502110423 26 0 0.0 0.0 0.00 0.61 0.61 100 1011.0
20260502105920 26 0 0.0 0.0 0.00 0.61 0.61 100 1011.0
20260502105417 26 0 0.0 0.0 0.00 0.61 0.61 100 1011.0
20260502104915 26 0 0.0 0.0 0.00 0.61 0.61 100 1011.0
20260502104412 26 0 0.0 0.0 0.00 0.61 0.61 100 1011.0
20260502103909 26 0 0.0 0.0 0.00 0.61 0.61 100 1011.0
20260502103407 26 0 0.0 0.0 0.00 0.61 0.61 100 1011.0
20260502102904 26 0 0.0 0.0 0.00 0.61 0.61 100 1010.7
20260502102400 26 0 0.0 0.0 0.00 0.61 0.61 100 1010.7
20260502101858 26 0 0.0 0.0 0.00 0.61 0.61 100 1010.7
20260502101356 26 0 0.0 1.6 0.00 0.61 0.61 100 1010.7
20260502100854 26 0 0.0 1.6 0.00 0.61 0.61 100 1010.7
20260502100353 26 0 0.0 0.0 0.00 0.61 0.61 100 1010.7
20260502091326 26 0 0.0 0.0 0.00 0.61 0.61 100 1010.0
20260502090824 26 0 0.0 0.0 0.00 0.61 0.61 100 1010.0
20260502090320 26 0 0.0 0.0 0.00 0.61 0.61 100 1010.0
20260502071216 26 0 1.6 4.8 0.00 0.61 0.61 100 1008.3
20260502070714 26 0 1.6 3.2 0.00 0.61 0.61 100 1008.0
20260502070211 26 0 0.0 1.6 0.00 0.61 0.61 100 1008.0
20260502065710 26 0 0.0 0.0 0.00 0.61 0.61 100 1008.0
20260502065207 26 0 0.0 0.0 0.00 0.61 0.61 100 1008.0
20260502064706 26 0 0.0 0.0 0.00 0.61 0.61 100 1008.0
20260502064202 26 0 3.2 4.8 0.00 0.61 0.61 100 1007.6
20260502063700 26 0 1.6 6.4 0.00 0.61 0.61 100 1007.6
20260502063158 26 0 3.2 4.8 0.00 0.61 0.61 100 1007.6
20260502062655 26 0 1.6 3.2 0.00 0.61 0.61 100 1007.6
20260502062152 26 0 0.0 3.2 0.00 0.61 0.61 100 1007.6
20260502061651 26 0 1.6 6.4 0.00 0.61 0.61 100 1007.6
20260502061148 26 0 0.0 0.0 0.00 0.61 0.61 100 1008.0
20260502060648 26 0 1.6 4.8 0.00 0.61 0.61 100 1008.0
20260502060145 26 0 0.0 1.6 0.00 0.61 0.61 100 1008.0
20260502055643 26 0 1.6 3.2 0.00 0.61 0.61 100 1007.6
20260502055140 26 0 1.6 6.4 0.00 0.61 0.61 100 1007.6
20260502054639 26 0 4.8 9.7 0.00 0.61 0.61 100 1008.0
20260502054136 26 0 1.6 6.4 0.00 0.61 0.61 100 1008.0
20260502053633 26 0 4.8 9.7 0.00 0.61 0.61 100 1008.0
20260502053131 26 0 0.0 3.2 0.00 0.61 0.61 100 1008.0
20260502052629 26 0 3.2 6.4 0.00 0.61 0.61 100 1008.0
20260502052127 26 0 6.4 9.7 0.00 0.61 0.61 100 1008.3
20260502051625 26 0 3.2 4.8 0.00 0.61 0.61 100 1008.3
20260502051123 26 0 3.2 8.0 0.00 0.61 0.61 100 1008.3
20260502050618 26 0 4.8 9.7 0.00 0.61 0.61 100 1008.3
20260502050115 26 0 3.2 6.4 0.00 0.61 0.61 100 1008.6
20260502045611 26 0 1.6 6.4 0.00 0.61 0.61 100 1008.6
20260502045109 26 0 3.2 4.8 0.00 0.61 0.61 100 1008.3
20260502044605 26 0 8.0 12.9 0.00 0.61 0.61 100 1008.3
20260502044102 26 0 4.8 11.3 0.00 0.61 0.61 100 1008.3
20260502043600 26 0 9.7 14.5 0.00 0.61 0.61 100 1008.6
20260502043056 26 0 11.3 22.5 0.00 0.61 0.61 100 1008.6
20260502042550 26 0 9.7 17.7 3.61 0.51 0.51 100 1008.6
20260502042048 26 0 8.0 17.7 11.99 0.10 0.10 100 1009.0
20260502041546 26 0 6.4 17.7 0.00 0.03 0.03 100 1008.6
20260502041043 26 0 9.7 16.1 0.00 0.03 0.03 100 1008.6
20260502040539 26 0 8.0 12.9 0.00 0.03 0.03 100 1008.6
20260502040036 26 0 6.4 11.3 0.00 0.03 0.03 100 1008.6
20260502035532 26 0 9.7 16.1 0.00 0.03 0.03 100 1008.6
20260502035030 26 0 8.0 14.5 0.00 0.03 0.03 100 1008.6
20260502034528 26 0 1.6 6.4 0.00 0.03 0.03 100 1009.0
20260502034026 26 0 4.8 9.7 0.00 0.03 0.03 100 1009.0
20260502033524 26 0 6.4 12.9 0.00 0.03 0.03 100 1009.0
20260502033021 26 0 6.4 16.1 0.00 0.03 0.03 100 1009.0
20260502032516 26 0 4.8 12.9 0.00 0.03 0.03 100 1009.0
20260502032014 26 0 1.6 6.4 0.00 0.03 0.03 100 1009.0
20260502031512 26 0 4.8 9.7 0.00 0.03 0.03 100 1009.0
20260502031009 26 0 1.6 4.8 0.00 0.03 0.03 100 1009.3
20260502030508 26 0 6.4 11.3 0.00 0.03 0.03 100 1009.3
20260502030005 26 0 6.4 12.9 0.00 0.00 0.00 100 1009.6
20260502025502 26 0 4.8 14.5 0.00 0.00 0.00 100 1009.6
20260502025000 26 0 6.4 11.3 0.00 0.00 0.00 100 1009.6
20260502024458 26 0 8.0 12.9 0.00 0.00 0.00 100 1009.6
20260502023956 26 0 8.0 16.1 0.00 0.00 0.00 100 1009.6
20260502023453 26 0 8.0 14.5 0.00 0.00 0.00 100 1009.6
20260502022950 26 0 8.0 17.7 0.00 0.00 0.00 100 1010.0
20260502022447 26 0 6.4 14.5 0.00 0.00 0.00 100 1010.0
20260502021944 26 0 8.0 14.5 0.00 0.00 0.00 100 1009.6
20260502021441 26 0 9.7 19.3 0.00 0.00 0.00 100 1009.6
20260502020938 26 0 11.3 20.9 0.00 0.00 0.00 100 1010.0
20260502020436 26 0 3.2 11.3 0.00 0.00 0.00 100 1010.0
20260502015932 26 0 6.4 14.5 0.00 0.00 0.00 100 1010.3
20260502015431 26 0 4.8 9.7 0.00 0.00 0.00 100 1010.3
20260502014927 26 0 4.8 11.3 0.00 0.00 0.00 100 1010.3
20260502014425 26 0 8.0 14.5 0.00 0.00 0.00 100 1010.3
20260502013921 26 0 6.4 16.1 0.00 0.00 0.00 100 1010.7
20260502013416 26 0 6.4 11.3 0.00 0.00 0.00 100 1010.7
20260502012913 26 0 6.4 16.1 0.00 0.00 0.00 100 1010.7
20260502012411 26 0 11.3 20.9 0.00 0.00 0.00 100 1010.7
20260502011908 26 0 8.0 16.1 0.00 0.00 0.00 100 1010.7
20260502011403 26 0 11.3 17.7 0.00 0.00 0.00 100 1010.7
20260502010901 26 0 11.3 24.1 0.00 0.00 0.00 100 1010.7
20260502010357 26 0 9.7 20.9 0.00 0.00 0.00 100 1010.7
20260502005854 26 0 14.5 25.7 0.00 0.00 0.00 100 1010.7
20260502005352 26 0 6.4 16.1 0.00 0.00 0.00 100 1010.7
20260502004849 26 0 12.9 24.1 0.00 0.00 0.00 100 1010.7
20260502004345 26 0 4.8 12.9 0.00 0.00 0.00 100 1010.7
20260502003843 26 0 8.0 22.5 0.00 0.00 0.00 100 1010.7
20260502003340 26 0 11.3 24.1 0.00 0.00 0.00 100 1010.7
20260502002836 26 0 12.9 24.1 0.00 0.00 0.00 100 1010.7
20260502002333 26 0 1.6 11.3 0.00 0.00 0.00 100 1010.7
20260502001831 26 0 8.0 16.1 0.00 0.00 0.00 100 1010.7
20260502001328 26 0 9.7 17.7 0.00 0.00 0.00 100 1010.7
20260502000826 26 0 11.3 20.9 0.00 0.00 0.00 100 1011.0
20260502000325 26 0 4.8 16.1 0.00 0.00 0.00 100 1010.7
20260501235819 26 0 6.4 9.7 0.00 0.00 0.00 100 1010.7
20260501235315 26 0 6.4 14.5 0.00 0.00 0.00 100 1011.0
20260501234811 26 0 3.2 9.7 0.00 0.00 0.00 100 1011.0
20260501234308 26 0 6.4 14.5 0.00 0.00 0.00 100 1010.7
20260501233807 26 0 8.0 17.7 0.00 0.00 0.00 100 1010.7
20260501233304 26 0 3.2 9.7 0.00 0.00 0.00 100 1011.0
20260501232759 26 0 3.2 9.7 0.00 0.00 0.00 100 1011.0
20260501232256 26 0 8.0 20.9 0.00 0.00 0.00 100 1011.0
20260501231754 26 0 3.2 8.0 0.00 0.00 0.00 100 1011.0
20260501231252 26 0 8.0 17.7 0.00 0.00 0.00 100 1011.0
20260501230750 26 0 4.8 14.5 0.00 0.00 0.00 100 1011.0
20260501230248 26 0 11.3 25.7 0.00 0.00 0.00 100 1011.0
20260501225745 26 0 16.1 30.6 0.00 0.00 0.00 100 1011.0
20260501225243 26 0 14.5 32.2 0.00 0.00 0.00 100 1011.0
20260501224738 26 0 6.4 17.7 0.00 0.00 0.00 100 1011.0
20260501224237 26 0 4.8 11.3 0.00 0.00 0.00 100 1011.0
20260501223732 26 0 1.6 9.7 0.00 0.00 0.00 100 1010.7
20260501223229 26 0 3.2 14.5 0.00 0.00 0.00 100 1010.7
20260501222725 26 0 3.2 11.3 0.00 0.00 0.00 100 1011.0
20260501222223 26 0 8.0 16.1 0.00 0.00 0.00 100 1011.0
20260501221719 26 0 9.7 19.3 0.00 0.00 0.00 100 1011.3
20260501221216 26 0 16.1 29.0 0.00 0.00 0.00 100 1011.3
20260501220714 26 0 8.0 19.3 0.00 0.00 0.00 100 1011.3
20260501220211 26 0 8.0 14.5 0.00 0.00 0.00 100 1011.3
20260501215708 26 0 1.6 8.0 0.00 0.00 0.00 100 1011.0
20260501215203 26 0 8.0 27.4 0.00 0.00 0.00 100 1011.0
20260501214658 26 0 12.9 24.1 0.00 0.00 0.00 100 1011.0
20260501214154 26 0 6.4 20.9 0.00 0.00 0.00 100 1011.0
20260501213651 26 0 9.7 16.1 0.00 0.00 0.00 100 1011.0
20260501213147 26 0 0.0 3.2 0.00 0.00 0.00 100 1010.7
20260501212644 26 0 1.6 4.8 0.00 0.00 0.00 100 1010.7
20260501212141 26 0 8.0 17.7 0.00 0.00 0.00 100 1010.7
20260501211637 26 0 3.2 16.1 0.00 0.00 0.00 100 1010.3
20260501211135 26 0 3.2 11.3 0.00 0.00 0.00 100 1010.7